This is the latest recevied weather packets stored in our database for station/object SP2TMT-10. If no packets are shown the sender has not sent any weather packets the latest 10 day(s).
| Time | Temp. | Humidity | Pressure | Rain* | Wind** | Luminosity | Snow |
|---|---|---|---|---|---|---|---|
| 1777343958 | 19.44° C | 30% | 1025.1 hPa | - | - | - | - |
| 1777343057 | 19.44° C | 28% | 1025.2 hPa | - | - | - | - |
| 1777342157 | 20° C | 27% | 1025.1 hPa | - | - | - | - |
| 1777341257 | 20° C | 27% | 1024.9 hPa | - | - | - | - |
| 1777340352 | 20° C | 28% | 1024.9 hPa | - | - | - | - |
| 1777339452 | 20° C | 28% | 1024.9 hPa | - | - | - | - |
| 1777338552 | 20° C | 28% | 1024.9 hPa | - | - | - | - |
| 1777337652 | 20° C | 27% | 1024.7 hPa | - | - | - | - |
| 1777336752 | 20° C | 27% | 1024.8 hPa | - | - | - | - |
| 1777335851 | 20° C | 28% | 1024.7 hPa | - | - | - | - |
| 1777334952 | 20° C | 28% | 1024.8 hPa | - | - | - | - |
| 1777334051 | 20.56° C | 28% | 1024.6 hPa | - | - | - | - |
| 1777333151 | 20.56° C | 28% | 1024.7 hPa | - | - | - | - |
| 1777332251 | 20.56° C | 28% | 1024.6 hPa | - | - | - | - |
| 1777331351 | 20.56° C | 29% | 1024.5 hPa | - | - | - | - |
| 1777330451 | 21.11° C | 29% | 1024.4 hPa | - | - | - | - |
| 1777329551 | 21.11° C | 30% | 1024.3 hPa | - | - | - | - |
| 1777328651 | 21.67° C | 31% | 1024.1 hPa | - | - | - | - |
| 1777327751 | 21.67° C | 32% | 1024 hPa | - | - | - | - |
| 1777326845 | 22.22° C | 35% | 1024 hPa | - | - | - | - |
| 1777325945 | 22.78° C | 38% | 1023.9 hPa | - | - | - | - |
| 1777325045 | 26.67° C | 49% | 1023.9 hPa | - | - | - | - |
| 1777324145 | 22.78° C | 44% | 1023.7 hPa | - | - | - | - |
| 1777323245 | 26.67° C | 64% | 1023.6 hPa | - | - | - | - |
| 1777322345 | 26.11° C | 62% | 1023.6 hPa | - | - | - | - |
* Rain since midnight (hover to see other rain measurements)
** Current wind speed in m/s (hover to see current wind gust speed)